"startDT [UTC]","vpos","CH4 [ppm]","stdev(CH4) [ppm]","CO2 [ppm]","stdev(CO2) [ppm]","H2O_reported [%]","stdev(H2O_reported)","CavityPressure [torr]","CavityTemp [C]","OutletValve","CH4_dry [ppm]","CO2_dry [ppm]","DasTemp [C]","EtalonTemp [C]","WarmBoxTemp [C]","MPVPosition","T_ECpre [C]","T_EC1 [C]","T_EC2 [C]","p_inlet [hPa]","p_in [hPa]","p_out [hPa]","T_inlet [C]","RH_inlet [%]","dwpt_inlet [C]","T_vent [C]","RH_vent [%]","dwpt_vent [C]","flow_vent [l min-1]","flow_inlet [l min-1]","dwpt_sample [C]","T_room [C]"
2015-10-05 00:00:00,0.0,1.95014,0.00073,395.736,0.052,0.3255,0.0018,140.000,44.999,31727.74737,1.95646,397.298,34.634,45.068,45.000,0.00,0.09,-272.75,-272.80,-10,525,-939,21.5,9.6,-12.0,21.6,9.7,-11.7,5.73,1.90,-3.4,27.0
2015-10-05 00:01:00,0.0,1.94927,0.00051,395.561,0.092,0.3274,0.0016,140.000,45.000,31728.56155,1.95563,397.136,34.709,45.069,45.001,0.00,0.09,-272.74,-272.80,-9,526,-939,21.5,9.6,-11.9,21.7,9.7,-11.6,5.73,2.12,-3.4,27.1
2015-10-05 00:02:00,0.0,1.94897,0.00037,395.445,0.054,0.3302,0.0016,139.999,45.000,31732.32160,1.95536,397.031,34.788,45.070,45.002,0.00,0.09,-272.74,-272.80,-8,525,-939,21.5,9.7,-11.8,21.7,9.8,-11.5,5.73,1.76,-3.5,27.1
2015-10-05 00:03:00,0.0,1.94882,0.00045,395.395,0.056,0.3311,0.0021,140.002,45.001,31734.72466,1.95523,396.987,34.860,45.070,45.002,0.00,0.09,-272.74,-272.80,-9,525,-940,21.5,9.7,-11.7,21.7,9.8,-11.5,5.73,1.98,-3.4,27.1
2015-10-05 00:04:00,0.0,1.94882,0.00034,395.422,0.034,0.3321,0.0013,139.998,45.002,31736.79395,1.95525,397.013,34.938,45.070,45.002,0.00,0.09,-272.74,-272.80,-9,525,-940,21.5,9.7,-11.7,21.7,9.9,-11.4,5.73,2.04,-3.4,27.2
2015-10-05 00:05:00,0.0,1.94912,0.00037,395.397,0.046,0.3315,0.0017,140.001,45.001,31738.31397,1.95554,396.987,34.992,45.069,45.001,0.00,0.09,-272.75,-272.80,-8,525,-940,21.5,9.7,-11.7,21.7,9.9,-11.4,5.73,1.74,-3.4,27.2
2015-10-05 00:06:00,0.0,1.94882,0.00066,395.389,0.137,0.3322,0.0025,139.999,45.001,31741.76392,1.95524,396.984,35.036,45.069,45.000,0.00,0.09,-272.75,-272.80,-9,525,-940,21.5,9.8,-11.7,21.7,9.9,-11.4,5.73,2.05,-3.4,27.3
2015-10-05 00:07:00,0.0,1.95132,0.00157,395.665,0.149,0.3289,0.0032,140.001,45.001,31742.72319,1.95755,397.238,35.064,45.069,45.000,0.00,0.09,-272.73,-272.80,-10,526,-940,21.5,9.7,-11.8,21.7,9.9,-11.4,5.73,2.01,-3.4,27.3
2015-10-05 00:08:00,0.0,1.95325,0.00085,395.832,0.070,0.3262,0.0016,140.000,45.001,31743.65069,1.95955,397.398,35.070,45.068,44.999,0.00,0.09,-272.74,-272.81,-9,526,-940,21.4,9.6,-12.0,21.7,9.7,-11.6,5.73,1.75,-3.4,27.3
2015-10-05 00:09:00,0.0,1.95576,0.00118,396.019,0.097,0.3216,0.0022,140.000,45.000,31745.34480,1.96195,397.565,35.058,45.068,44.999,0.00,0.09,-272.75,-272.80,-8,525,-940,21.4,9.5,-12.1,21.7,9.6,-11.7,5.73,1.99,-3.5,27.2
2015-10-05 00:10:00,0.0,1.95619,0.00146,396.049,0.144,0.3198,0.0020,140.001,45.000,31746.39741,1.96243,397.584,34.997,45.068,44.999,0.00,0.09,-272.74,-272.80,-9,525,-940,21.4,9.4,-12.2,21.6,9.6,-11.8,5.73,2.08,-3.5,27.2
2015-10-05 00:11:00,0.0,1.95422,0.00046,395.843,0.104,0.3224,0.0018,139.997,44.999,31744.74685,1.96051,397.395,34.911,45.067,44.999,0.00,0.09,-272.74,-272.80,-9,526,-939,21.4,9.5,-12.1,21.6,9.6,-11.8,5.73,1.85,-3.4,27.1
2015-10-05 00:12:00,0.0,1.95332,0.00063,395.705,0.048,0.3235,0.0017,139.999,44.999,31743.98740,1.95963,397.259,34.812,45.067,44.999,0.00,0.09,-272.75,-272.81,-9,526,-939,21.4,9.6,-12.0,21.6,9.7,-11.7,5.73,1.79,-3.5,27.1
2015-10-05 00:13:00,0.0,1.95338,0.00029,395.636,0.054,0.3225,0.0022,140.002,44.998,31739.57931,1.95963,397.187,34.713,45.067,44.999,0.00,0.09,-272.75,-272.80,-9,526,-939,21.5,9.5,-12.0,21.6,9.7,-11.7,5.73,1.96,-3.4,27.1
2015-10-05 00:14:00,0.0,1.95284,0.00036,395.581,0.032,0.3236,0.0019,140.000,44.998,31731.94921,1.95913,397.132,34.640,45.067,44.999,0.00,0.09,-272.74,-272.80,-9,527,-941,21.4,9.5,-12.0,21.6,9.7,-11.8,5.73,2.09,-3.5,27.1
2015-10-05 00:15:00,0.0,1.95046,0.00076,395.416,0.093,0.3301,0.0030,140.001,44.998,31728.18130,1.95690,397.001,34.590,45.067,44.999,0.00,0.09,-272.74,-272.81,-8,526,-939,21.4,9.7,-11.8,21.6,9.8,-11.6,5.73,1.93,-3.5,27.0
2015-10-05 00:16:00,0.0,1.95161,0.00110,395.557,0.137,0.3271,0.0023,140.002,44.999,31727.90991,1.95790,397.126,34.586,45.068,45.000,0.00,0.09,-272.74,-272.81,-9,525,-939,21.4,9.7,-11.9,21.6,9.8,-11.6,5.73,1.75,-3.5,27.0
2015-10-05 00:17:00,0.0,1.95156,0.00167,395.528,0.178,0.3276,0.0024,140.001,44.999,31727.27977,1.95801,397.105,34.606,45.069,45.000,0.00,0.09,-272.75,-272.79,-10,525,-939,21.4,9.7,-11.9,21.6,9.8,-11.6,5.73,2.03,-3.5,27.0
2015-10-05 00:18:00,0.0,1.95398,0.00340,395.782,0.351,0.3248,0.0053,140.000,45.000,31727.52414,1.96010,397.334,34.633,45.069,45.001,0.00,0.09,-272.74,-272.80,-8,525,-939,21.4,9.6,-12.0,21.6,9.8,-11.6,5.73,2.02,-3.5,27.0
2015-10-05 00:19:00,0.0,1.95635,0.00239,396.104,0.382,0.3185,0.0037,140.001,45.000,31729.12209,1.96243,397.629,34.680,45.069,45.001,0.00,0.09,-272.74,-272.80,-8,525,-939,21.4,9.4,-12.2,21.6,9.6,-11.8,5.73,1.74,-3.5,27.0
2015-10-05 00:20:00,0.0,1.95882,0.00093,396.076,0.084,0.3159,0.0017,140.001,45.001,31730.65607,1.96497,397.599,34.722,45.070,45.001,0.00,0.09,-272.75,-272.80,-9,525,-939,21.4,9.3,-12.3,21.6,9.5,-12.0,5.73,2.06,-3.5,27.0
2015-10-05 00:21:00,0.0,1.95690,0.00134,395.882,0.140,0.3178,0.0022,140.001,45.001,31733.97003,1.96322,397.414,34.752,45.070,45.001,0.00,0.09,-272.73,-272.80,-9,525,-939,21.4,9.4,-12.2,21.6,9.5,-12.0,5.73,1.99,-3.4,27.1
2015-10-05 00:22:00,0.0,1.95197,0.00079,395.433,0.068,0.3245,0.0022,139.997,45.001,31736.18870,1.95839,396.994,34.799,45.069,45.001,0.00,0.09,-272.74,-272.81,-8,525,-939,21.4,9.6,-11.9,21.6,9.6,-11.8,5.73,1.75,-3.5,27.1
2015-10-05 00:23:00,0.0,1.95228,0.00111,395.443,0.086,0.3269,0.0019,140.001,45.001,31738.80113,1.95847,397.007,34.814,45.069,45.000,0.00,0.09,-272.74,-272.80,-9,525,-940,21.5,9.7,-11.9,21.6,9.8,-11.6,5.73,2.07,-3.4,27.1
2015-10-05 00:24:00,0.0,1.95465,0.00131,395.622,0.115,0.3238,0.0024,139.999,45.001,31741.28621,1.96093,397.176,34.856,45.069,45.000,0.00,0.09,-272.74,-272.80,-9,525,-940,21.4,9.6,-12.0,21.6,9.7,-11.7,5.73,2.00,-3.5,27.2
2015-10-05 00:25:00,0.0,1.95515,0.00057,395.634,0.045,0.3225,0.0020,139.998,45.000,31741.61199,1.96136,397.182,34.840,45.068,45.000,0.00,0.09,-272.74,-272.80,-9,526,-940,21.4,9.6,-12.0,21.6,9.7,-11.7,5.73,1.76,-3.5,27.1
2015-10-05 00:26:00,0.0,1.95475,0.00110,395.570,0.087,0.3239,0.0018,140.001,45.000,31741.40965,1.96111,397.127,34.772,45.068,44.999,0.00,0.09,-272.75,-272.80,-8,526,-939,21.4,9.6,-12.0,21.6,9.7,-11.7,5.73,1.92,-3.5,27.1
2015-10-05 00:27:00,0.0,1.95558,0.00077,395.650,0.073,0.3244,0.0019,140.000,44.999,31735.39958,1.96192,397.208,34.718,45.067,44.999,0.00,0.09,-272.75,-272.80,-9,525,-939,21.4,9.6,-11.9,21.6,9.7,-11.7,5.73,2.09,-3.5,27.1
2015-10-05 00:28:00,0.0,1.94930,0.00169,395.169,0.141,0.3321,0.0034,139.999,44.999,31731.27243,1.95588,396.767,34.633,45.067,44.999,0.00,0.09,-272.74,-272.80,-9,525,-939,21.4,9.8,-11.7,21.6,9.8,-11.5,5.73,1.96,-3.4,27.0
2015-10-05 00:29:00,0.0,1.94869,0.00118,394.989,0.125,0.3351,0.0022,140.001,44.999,31728.38467,1.95515,396.595,34.581,45.067,44.999,0.00,0.09,-272.75,-272.81,-10,525,-939,21.4,9.9,-11.6,21.6,10.0,-11.4,5.73,1.77,-3.5,27.0
2015-10-05 00:30:00,0.0,1.95241,0.00226,395.503,0.287,0.3295,0.0038,140.001,44.999,31725.81298,1.95871,397.076,34.543,45.067,44.999,0.00,0.09,-272.74,-272.80,-9,525,-939,21.4,9.7,-11.8,21.6,9.9,-11.4,5.73,1.91,-3.4,27.0
2015-10-05 00:31:00,0.0,1.95045,0.00115,395.259,0.201,0.3315,0.0039,140.000,44.999,31723.91687,1.95695,396.859,34.529,45.068,45.000,0.00,0.09,-272.74,-272.79,-8,525,-939,21.4,9.8,-11.7,21.6,9.9,-11.5,5.73,2.11,-3.4,27.0
2015-10-05 00:32:00,0.0,1.95017,0.00043,395.253,0.067,0.3327,0.0015,140.000,45.000,31722.33439,1.95663,396.847,34.560,45.069,45.000,0.00,0.09,-272.74,-272.80,-9,525,-939,21.4,9.9,-11.7,21.6,10.0,-11.4,5.73,1.84,-3.4,27.0
2015-10-05 00:33:00,0.0,1.94910,0.00038,395.138,0.081,0.3350,0.0015,140.000,45.000,31723.51415,1.95557,396.744,34.580,45.069,45.001,0.00,0.09,-272.75,-272.80,-10,525,-939,21.4,9.9,-11.6,21.5,10.0,-11.4,5.73,1.83,-3.5,27.0
2015-10-05 00:34:00,0.0,1.94998,0.00054,395.372,0.056,0.3331,0.0017,139.999,45.001,31725.43050,1.95639,396.969,34.623,45.069,45.001,0.00,0.09,-272.74,-272.80,-9,525,-939,21.4,9.8,-11.7,21.6,10.0,-11.4,5.73,2.13,-3.5,27.0
2015-10-05 00:35:00,0.0,1.94935,0.00068,395.326,0.123,0.3330,0.0022,139.998,45.001,31727.59317,1.95587,396.926,34.660,45.070,45.001,0.00,0.09,-272.74,-272.80,-8,525,-939,21.4,9.8,-11.7,21.6,10.0,-11.4,5.73,1.84,-3.4,27.1
2015-10-05 00:36:00,0.0,1.94985,0.00059,395.368,0.081,0.3338,0.0016,140.000,45.001,31728.43080,1.95623,396.966,34.686,45.070,45.001,0.00,0.09,-272.75,-272.81,-9,525,-939,21.4,9.9,-11.7,21.6,10.0,-11.4,5.73,1.83,-3.5,27.1
2015-10-05 00:37:00,0.0,1.94994,0.00054,395.292,0.092,0.3336,0.0022,140.000,45.001,31729.95707,1.95645,396.894,34.687,45.069,45.001,0.00,0.09,-272.74,-272.80,-10,525,-939,21.3,9.9,-11.7,21.6,10.0,-11.4,5.73,2.12,-3.4,27.1
2015-10-05 00:38:00,0.0,1.95005,0.00042,395.157,0.069,0.3372,0.0019,139.998,45.001,31728.47558,1.95656,396.780,34.693,45.069,45.000,0.00,0.09,-272.74,-272.80,-9,525,-939,21.3,10.0,-11.6,21.5,10.0,-11.3,5.73,1.91,-3.4,27.0
2015-10-05 00:39:00,0.0,1.95033,0.00041,395.107,0.058,0.3377,0.0019,140.001,45.000,31728.56447,1.95688,396.725,34.676,45.069,45.000,0.00,0.09,-272.74,-272.81,-9,525,-939,21.3,10.0,-11.6,21.5,10.1,-11.3,5.73,1.77,-3.4,27.0
2015-10-05 00:40:00,0.0,1.95101,0.00027,395.279,0.059,0.3354,0.0017,139.998,45.000,31725.82506,1.95750,396.888,34.606,45.068,44.999,0.00,0.09,-272.75,-272.79,-9,525,-939,21.3,9.9,-11.6,21.5,10.1,-11.3,5.73,1.96,-3.4,26.9
2015-10-05 00:41:00,0.0,1.95212,0.00064,395.190,0.037,0.3359,0.0018,139.999,44.999,31722.61792,1.95856,396.801,34.522,45.067,44.999,0.00,0.09,-272.74,-272.80,-9,525,-939,21.4,9.9,-11.6,21.5,10.0,-11.3,5.73,2.08,-3.4,26.9
2015-10-05 00:42:00,0.0,1.95295,0.00036,395.153,0.037,0.3356,0.0018,139.999,44.998,31719.25004,1.95947,396.766,34.469,45.067,44.998,0.00,0.09,-272.74,-272.81,-10,525,-939,21.4,9.9,-11.6,21.5,10.1,-11.3,5.73,1.94,-3.5,27.0
2015-10-05 00:43:00,0.0,1.95397,0.00031,395.231,0.088,0.3342,0.0013,140.002,44.999,31717.46510,1.96043,396.831,34.436,45.067,44.999,0.00,0.09,-272.74,-272.81,-9,525,-939,21.4,9.9,-11.7,21.5,10.0,-11.3,5.73,1.76,-3.5,26.9
2015-10-05 00:44:00,0.0,1.95589,0.00094,395.529,0.114,0.3294,0.0022,139.996,44.999,31715.04644,1.96216,397.107,34.436,45.067,44.999,0.00,0.09,-272.74,-272.79,-8,525,-939,21.3,9.7,-11.9,21.5,9.9,-11.5,5.73,1.96,-3.4,26.9
2015-10-05 00:45:00,0.0,1.95852,0.00085,395.504,0.067,0.3266,0.0013,139.999,44.999,31714.19620,1.96484,397.072,34.450,45.068,45.000,0.00,0.09,-272.74,-272.80,-9,525,-939,21.3,9.7,-11.9,21.5,9.8,-11.6,5.73,2.10,-3.5,26.9
2015-10-05 00:46:00,0.0,1.95824,0.00056,395.463,0.061,0.3255,0.0017,140.000,45.000,31714.73303,1.96459,397.026,34.524,45.069,45.001,0.00,0.09,-272.74,-272.81,-10,525,-939,21.4,9.7,-11.9,21.5,9.8,-11.6,5.73,1.77,-3.4,26.9
2015-10-05 00:47:00,0.0,1.95890,0.00070,395.478,0.082,0.3265,0.0022,140.000,45.001,31717.26665,1.96520,397.044,34.594,45.069,45.001,0.00,0.09,-272.75,-272.80,-9,525,-939,21.4,9.6,-11.9,21.6,9.8,-11.6,5.73,1.95,-3.4,26.9
2015-10-05 00:48:00,0.0,1.95896,0.00044,395.424,0.026,0.3256,0.0014,140.002,45.001,31720.41152,1.96529,396.987,34.676,45.070,45.001,0.00,0.09,-272.74,-272.80,-8,525,-939,21.4,9.6,-11.9,21.6,9.8,-11.6,5.73,2.08,-3.4,27.0
2015-10-05 00:49:00,0.0,1.95974,0.00043,395.373,0.041,0.3270,0.0014,139.999,45.001,31722.47427,1.96609,396.944,34.746,45.070,45.001,0.00,0.09,-272.74,-272.81,-9,524,-939,21.4,9.7,-11.9,21.6,9.8,-11.6,5.73,1.74,-3.4,27.0
2015-10-05 00:50:00,0.0,1.95948,0.00075,395.271,0.065,0.3269,0.0023,139.999,45.001,31723.39262,1.96588,396.841,34.783,45.069,45.000,0.00,0.09,-272.75,-272.81,-10,525,-939,21.4,9.7,-11.9,21.5,9.8,-11.6,5.73,1.99,-3.4,27.0
2015-10-05 00:51:00,0.0,1.95939,0.00078,395.240,0.066,0.3272,0.0021,139.999,45.001,31726.29334,1.96572,396.810,34.808,45.069,45.000,0.00,0.09,-272.74,-272.80,-9,525,-939,21.3,9.7,-11.9,21.5,9.8,-11.6,5.73,2.08,-3.4,27.0
2015-10-05 00:52:00,0.0,1.95993,0.00065,395.348,0.073,0.3255,0.0017,139.999,45.001,31727.96235,1.96625,396.906,34.786,45.068,44.999,0.00,0.09,-272.73,-272.80,-8,525,-939,21.3,9.7,-12.0,21.5,9.8,-11.6,5.73,1.82,-3.4,27.0
2015-10-05 00:53:00,0.0,1.96050,0.00085,395.391,0.069,0.3251,0.0014,140.001,45.000,31725.55826,1.96685,396.952,34.741,45.067,44.999,0.00,0.09,-272.75,-272.81,-9,525,-939,21.3,9.6,-12.0,21.5,9.8,-11.6,5.73,1.82,-3.4,27.0
2015-10-05 00:54:00,0.0,1.96042,0.00079,395.413,0.074,0.3261,0.0020,140.003,45.000,31725.64545,1.96677,396.976,34.718,45.067,44.999,0.00,0.09,-272.75,-272.80,-10,525,-939,21.3,9.7,-12.0,21.5,9.8,-11.6,5.73,2.08,-3.4,27.0
2015-10-05 00:55:00,0.0,1.95993,0.00061,395.391,0.038,0.3261,0.0012,139.998,45.000,31723.91960,1.96632,396.956,34.726,45.067,44.999,0.00,0.09,-272.74,-272.80,-9,525,-939,21.3,9.7,-12.0,21.5,9.8,-11.7,5.73,1.99,-3.4,27.0
2015-10-05 00:56:00,0.0,1.95983,0.00078,395.379,0.049,0.3274,0.0019,139.998,45.000,31724.75889,1.96611,396.948,34.751,45.068,45.000,0.00,0.09,-272.74,-272.81,-8,525,-939,21.3,9.7,-11.9,21.5,9.8,-11.6,5.73,1.75,-3.4,27.0
2015-10-05 00:57:00,0.0,1.96048,0.00094,395.403,0.063,0.3260,0.0017,139.999,45.000,31723.97257,1.96680,396.967,34.754,45.068,45.000,0.00,0.09,-272.75,-272.80,-9,525,-939,21.4,9.7,-11.9,21.5,9.8,-11.6,5.73,2.04,-3.4,27.0
2015-10-05 00:58:00,0.0,1.96135,0.00058,395.480,0.039,0.3255,0.0019,140.001,45.000,31726.39616,1.96773,397.042,34.751,45.069,45.000,0.00,0.09,-272.74,-272.80,-10,525,-939,21.3,9.6,-12.0,21.5,9.8,-11.7,5.73,2.04,-3.4,27.0
2015-10-05 00:59:00,0.0,1.96106,0.00057,395.496,0.051,0.3238,0.0019,140.001,45.000,31727.69582,1.96741,397.051,34.720,45.069,45.000,0.00,0.09,-272.74,-272.80,-9,525,-939,21.4,9.6,-12.0,21.5,9.7,-11.7,5.73,1.78,-3.4,26.9
2015-10-05 01:00:00,0.0,1.96327,0.00152,395.979,0.310,0.3183,0.0043,140.002,45.000,31727.16923,1.96938,397.495,34.663,45.068,45.000,0.00,0.09,-272.75,-272.80,-8,525,-939,21.3,9.4,-12.2,21.5,9.7,-11.8,5.73,1.85,-3.4,26.9
2015-10-05 01:01:00,0.0,1.96109,0.00124,396.237,0.080,0.3128,0.0019,140.000,44.999,31724.28599,1.96730,397.744,34.605,45.068,44.999,0.00,0.09,-272.75,-272.80,-8,525,-939,21.3,9.3,-12.5,21.5,9.5,-12.1,5.73,2.07,-3.4,26.9
2015-10-05 01:02:00,0.0,1.95799,0.00072,396.124,0.055,0.3126,0.0013,139.996,44.999,31718.08333,1.96413,397.627,34.560,45.068,44.999,0.00,0.09,-272.74,-272.80,-9,525,-939,21.4,9.3,-12.4,21.5,9.4,-12.1,5.73,2.02,-3.4,27.0
2015-10-05 01:03:00,0.0,1.95600,0.00089,395.996,0.048,0.3118,0.0014,139.998,44.999,31717.00742,1.96213,397.497,34.550,45.068,44.999,0.00,0.09,-272.74,-272.81,-9,525,-939,21.3,9.3,-12.4,21.5,9.4,-12.1,5.73,1.76,-3.4,26.9
2015-10-05 01:04:00,0.0,1.95362,0.00089,395.833,0.048,0.3130,0.0015,140.001,44.999,31716.41058,1.95976,397.337,34.564,45.068,45.000,0.00,0.09,-272.74,-272.80,-9,525,-939,21.3,9.3,-12.4,21.5,9.5,-12.1,5.73,1.93,-3.4,26.9
2015-10-05 01:05:00,0.0,1.95353,0.00096,395.784,0.077,0.3143,0.0019,140.000,45.000,31716.15377,1.95958,397.295,34.578,45.069,45.000,0.00,0.09,-272.74,-272.80,-8,524,-939,21.3,9.3,-12.4,21.5,9.5,-12.1,5.73,2.11,-3.4,26.9
2015-10-05 01:06:00,0.0,1.95291,0.00058,395.718,0.054,0.3159,0.0018,140.001,45.000,31719.62129,1.95909,397.233,34.600,45.069,45.001,0.00,0.09,-272.74,-272.81,-9,524,-939,21.3,9.4,-12.3,21.5,9.5,-12.0,5.73,1.79,-3.4,27.0
2015-10-05 01:07:00,0.0,1.95176,0.00057,395.736,0.034,0.3152,0.0017,140.002,45.001,31721.25202,1.95792,397.249,34.626,45.069,45.001,0.00,0.09,-272.75,-272.80,-9,525,-939,21.3,9.4,-12.3,21.5,9.5,-12.0,5.73,1.91,-3.4,27.0
2015-10-05 01:08:00,0.0,1.95070,0.00057,395.710,0.072,0.3149,0.0024,139.999,45.001,31723.50385,1.95679,397.223,34.660,45.069,45.001,0.00,0.09,-272.75,-272.80,-8,525,-939,21.3,9.4,-12.4,21.5,9.5,-12.0,5.73,2.12,-3.4,27.0
2015-10-05 01:09:00,0.0,1.95258,0.00074,395.879,0.180,0.3152,0.0032,139.997,45.001,31724.10484,1.95863,397.386,34.676,45.069,45.001,0.00,0.09,-272.74,-272.80,-8,525,-939,21.3,9.4,-12.4,21.5,9.5,-12.0,5.73,1.82,-3.4,26.9
2015-10-05 01:10:00,0.0,1.95529,0.00124,396.283,0.165,0.3097,0.0029,140.001,45.000,31725.91629,1.96118,397.764,34.630,45.069,45.000,0.00,0.09,-272.75,-272.80,-9,525,-939,21.3,9.2,-12.5,21.5,9.4,-12.1,5.73,1.82,-3.4,26.9
2015-10-05 01:11:00,0.0,1.95505,0.00172,396.147,0.274,0.3105,0.0034,139.999,45.000,31722.70936,1.96112,397.641,34.592,45.068,45.000,0.00,0.09,-272.74,-272.80,-9,525,-939,21.3,9.2,-12.5,21.5,9.4,-12.2,5.73,2.07,-3.4,26.9
2015-10-05 01:12:00,0.0,1.95461,0.00148,396.470,0.240,0.3092,0.0031,140.000,44.999,31717.65177,1.96069,397.955,34.542,45.068,44.999,0.00,0.09,-272.74,-272.80,-9,525,-939,21.3,9.2,-12.6,21.5,9.4,-12.2,5.73,2.03,-3.4,26.9
2015-10-05 01:13:00,0.0,1.95167,0.00054,395.821,0.420,0.3144,0.0050,139.999,44.999,31715.74248,1.95782,397.348,34.500,45.067,44.999,0.00,0.09,-272.74,-272.80,-8,525,-939,21.4,9.3,-12.3,21.5,9.4,-12.2,5.73,1.80,-3.4,26.9
2015-10-05 01:14:00,0.0,1.95094,0.00032,395.385,0.079,0.3213,0.0015,139.999,44.999,31712.52746,1.95717,396.922,34.500,45.067,44.999,0.00,0.09,-272.74,-272.80,-8,525,-939,21.4,9.5,-12.1,21.5,9.6,-11.9,5.73,1.85,-3.4,26.9
2015-10-05 01:15:00,0.0,1.95245,0.00110,395.658,0.200,0.3187,0.0021,139.999,44.999,31710.58368,1.95853,397.182,34.499,45.068,44.999,0.00,0.09,-272.74,-272.80,-9,525,-939,21.3,9.5,-12.2,21.5,9.7,-11.9,5.73,2.12,-3.4,26.8
2015-10-05 01:16:00,0.0,1.95311,0.00054,395.781,0.064,0.3166,0.0013,139.999,45.000,31709.49269,1.95929,397.304,34.499,45.068,45.000,0.00,0.09,-272.74,-272.81,-9,525,-939,21.3,9.4,-12.3,21.5,9.6,-12.0,5.73,1.91,-3.4,26.8
2015-10-05 01:17:00,0.0,1.95221,0.00042,395.486,0.169,0.3201,0.0022,140.001,45.000,31713.23704,1.95847,397.031,34.533,45.069,45.000,0.00,0.09,-272.74,-272.81,-8,525,-939,21.3,9.5,-12.2,21.4,9.6,-11.9,5.73,1.78,-3.4,26.8
2015-10-05 01:18:00,0.0,1.95116,0.00045,395.343,0.095,0.3216,0.0011,139.999,45.000,31712.72613,1.95738,396.880,34.560,45.069,45.000,0.00,0.09,-272.74,-272.80,-8,524,-939,21.3,9.6,-12.1,21.4,9.7,-11.8,5.73,2.09,-3.4,26.8
2015-10-05 01:19:00,0.0,1.95113,0.00068,395.392,0.101,0.3213,0.0019,140.000,45.000,31714.23997,1.95735,396.937,34.563,45.069,45.000,0.00,0.09,-272.74,-272.81,-9,524,-939,21.3,9.6,-12.1,21.4,9.7,-11.8,5.73,1.99,-3.4,26.8
2015-10-05 01:20:00,0.0,1.95021,0.00040,395.163,0.060,0.3237,0.0016,139.998,45.000,31712.47547,1.95652,396.719,34.548,45.069,45.000,0.00,0.09,-272.74,-272.81,-9,524,-939,21.3,9.6,-12.0,21.4,9.8,-11.8,5.73,1.76,-3.4,26.8
2015-10-05 01:21:00,0.0,1.95002,0.00057,395.201,0.072,0.3251,0.0021,139.997,45.000,31710.31134,1.95633,396.758,34.502,45.068,45.000,0.00,0.09,-272.74,-272.80,-9,525,-939,21.3,9.7,-12.0,21.4,9.8,-11.7,5.73,1.96,-3.4,26.8
2015-10-05 01:22:00,0.0,1.94976,0.00037,395.154,0.043,0.3255,0.0012,139.998,45.000,31710.65118,1.95607,396.715,34.501,45.068,45.000,0.00,0.09,-272.75,-272.80,-8,524,-939,21.2,9.7,-12.0,21.4,9.8,-11.7,5.73,2.10,-3.4,26.8
2015-10-05 01:23:00,0.0,1.94937,0.00035,395.099,0.041,0.3261,0.0013,140.000,45.000,31713.62593,1.95567,396.665,34.533,45.068,45.000,0.00,0.09,-272.75,-272.81,-9,524,-939,21.3,9.7,-12.0,21.4,9.8,-11.7,5.73,1.78,-3.4,26.8
2015-10-05 01:24:00,0.0,1.94886,0.00045,394.989,0.034,0.3269,0.0018,140.000,45.000,31714.18211,1.95520,396.555,34.572,45.069,45.000,0.00,0.09,-272.75,-272.80,-9,524,-939,21.3,9.7,-11.9,21.4,9.9,-11.6,5.73,1.91,-3.4,26.8
2015-10-05 01:25:00,0.0,1.94901,0.00039,395.050,0.035,0.3273,0.0018,140.000,45.000,31715.05048,1.95537,396.618,34.620,45.069,45.000,0.00,0.09,-272.74,-272.79,-8,524,-939,21.3,9.7,-11.9,21.4,9.9,-11.6,5.73,2.12,-3.4,26.8
2015-10-05 01:26:00,0.0,1.94851,0.00040,394.994,0.040,0.3277,0.0014,140.000,45.000,31716.45515,1.95486,396.567,34.624,45.069,45.000,0.00,0.09,-272.74,-272.81,-8,524,-939,21.3,9.7,-11.9,21.4,9.9,-11.6,5.73,1.82,-3.4,26.8
2015-10-05 01:27:00,0.0,1.94838,0.00061,395.012,0.032,0.3261,0.0016,139.998,45.000,31716.41583,1.95467,396.574,34.579,45.068,45.000,0.00,0.09,-272.75,-272.80,-9,524,-939,21.3,9.8,-11.9,21.4,9.9,-11.6,5.73,1.82,-3.4,26.7
2015-10-05 01:28:00,0.0,1.94777,0.00041,394.913,0.086,0.3276,0.0013,140.000,45.000,31715.82683,1.95414,396.485,34.521,45.068,44.999,0.00,0.09,-272.74,-272.80,-9,524,-939,21.3,9.8,-11.9,21.4,9.9,-11.6,5.73,2.07,-3.4,26.7
2015-10-05 01:29:00,0.0,1.94806,0.00066,394.938,0.029,0.3275,0.0014,139.996,44.999,31713.17658,1.95435,396.508,34.489,45.068,44.999,0.00,0.09,-272.74,-272.80,-9,525,-939,21.3,9.7,-11.9,21.4,9.9,-11.6,5.73,2.03,-3.4,26.7
2015-10-05 01:30:00,0.0,1.94925,0.00055,394.963,0.034,0.3266,0.0020,140.000,44.999,31710.08075,1.95555,396.527,34.446,45.068,44.999,0.00,0.09,-272.74,-272.81,-8,525,-938,21.3,9.7,-11.9,21.4,9.9,-11.6,5.73,1.78,-3.4,26.8
2015-10-05 01:31:00,0.0,1.94994,0.00041,394.952,0.047,0.3274,0.0016,139.998,44.999,31707.81258,1.95625,396.523,34.452,45.068,45.000,0.00,0.09,-272.74,-272.80,-8,524,-939,21.3,9.7,-11.9,21.4,9.9,-11.6,5.73,1.88,-3.4,26.8
2015-10-05 01:32:00,0.0,1.95086,0.00083,395.069,0.183,0.3264,0.0028,140.001,45.000,31708.22446,1.95715,396.626,34.488,45.068,45.000,0.00,0.09,-272.74,-272.80,-9,524,-938,21.3,9.7,-11.9,21.4,9.9,-11.6,5.73,2.13,-3.4,26.7
2015-10-05 01:33:00,0.0,1.95254,0.00042,395.663,0.148,0.3186,0.0019,140.001,45.000,31709.63259,1.95868,397.184,34.512,45.068,45.000,0.00,0.09,-272.74,-272.81,-9,524,-939,21.3,9.5,-12.2,21.4,9.7,-11.8,5.73,1.83,-3.4,26.7
2015-10-05 01:34:00,0.0,1.95198,0.00054,395.730,0.102,0.3177,0.0020,139.998,45.000,31710.99785,1.95817,397.260,34.553,45.069,45.001,0.00,0.09,-272.75,-272.80,-8,524,-939,21.3,9.4,-12.2,21.4,9.6,-11.9,5.73,1.86,-3.4,26.8
2015-10-05 01:35:00,0.0,1.95112,0.00037,395.628,0.076,0.3199,0.0019,140.000,45.001,31713.29576,1.95734,397.164,34.589,45.069,45.001,0.00,0.09,-272.74,-272.79,-8,524,-939,21.3,9.5,-12.2,21.4,9.6,-11.9,5.73,2.13,-3.4,26.8
2015-10-05 01:36:00,0.0,1.95048,0.00045,395.573,0.084,0.3195,0.0022,140.000,45.001,31717.57488,1.95668,397.107,34.623,45.069,45.001,0.00,0.09,-272.74,-272.80,-9,524,-939,21.3,9.5,-12.2,21.4,9.7,-11.9,5.73,1.82,-3.4,26.8
2015-10-05 01:37:00,0.0,1.95040,0.00051,395.612,0.033,0.3199,0.0020,140.001,45.001,31718.11748,1.95664,397.147,34.611,45.069,45.001,0.00,0.09,-272.75,-272.80,-9,525,-939,21.3,9.5,-12.2,21.4,9.7,-11.9,5.73,1.83,-3.4,26.8
2015-10-05 01:38:00,0.0,1.94991,0.00045,395.785,0.064,0.3186,0.0017,139.998,45.000,31717.01416,1.95608,397.313,34.562,45.069,45.000,0.00,0.09,-272.75,-272.80,-8,525,-939,21.3,9.5,-12.2,21.4,9.6,-11.9,5.73,2.09,-3.4,26.8
2015-10-05 01:39:00,0.0,1.94899,0.00068,395.641,0.178,0.3189,0.0026,140.000,45.000,31717.29796,1.95522,397.178,34.517,45.068,44.999,0.00,0.09,-272.74,-272.80,-8,524,-939,21.3,9.5,-12.2,21.4,9.6,-11.9,5.73,1.99,-3.4,26.8
2015-10-05 01:40:00,0.0,1.94795,0.00047,395.340,0.090,0.3235,0.0016,140.000,45.000,31716.64837,1.95417,396.889,34.492,45.068,45.000,0.00,0.09,-272.74,-272.81,-9,524,-939,21.3,9.6,-12.0,21.4,9.7,-11.8,5.73,1.76,-3.4,26.8
2015-10-05 01:41:00,0.0,1.94776,0.00050,395.449,0.243,0.3220,0.0019,139.999,45.000,31714.95070,1.95403,397.004,34.499,45.068,45.000,0.00,0.09,-272.74,-272.80,-9,525,-939,21.3,9.6,-12.1,21.4,9.7,-11.8,5.73,1.93,-3.4,26.8
2015-10-05 01:42:00,0.0,1.94659,0.00042,394.720,0.065,0.3305,0.0028,139.998,45.000,31711.40969,1.95300,396.306,34.501,45.068,45.000,0.00,0.09,-272.74,-272.80,-9,524,-939,21.3,9.8,-11.8,21.4,9.9,-11.6,5.73,2.11,-3.4,26.8
2015-10-05 01:43:00,0.0,1.94613,0.00032,394.663,0.042,0.3316,0.0018,140.001,45.000,31713.98942,1.95257,396.254,34.551,45.068,45.000,0.00,0.09,-272.74,-272.81,-8,524,-939,21.3,9.9,-11.7,21.4,10.0,-11.5,5.73,1.85,-3.3,26.8
2015-10-05 01:44:00,0.0,1.94568,0.00058,394.660,0.066,0.3313,0.0021,139.998,45.000,31712.75842,1.95209,396.244,34.559,45.069,45.000,0.00,0.09,-272.74,-272.80,-8,524,-939,21.2,9.9,-11.8,21.4,10.0,-11.5,5.73,1.80,-3.4,26.7
2015-10-05 01:45:00,0.0,1.94642,0.00053,394.754,0.061,0.3308,0.0024,140.000,45.000,31712.82334,1.95278,396.338,34.526,45.068,45.000,0.00,0.09,-272.74,-272.80,-9,524,-939,21.3,9.8,-11.8,21.4,10.0,-11.5,5.73,2.06,-3.3,26.7